Temperature
15 15 15 15 15 14 14 14 14 14 14 14 13 13 13 13 13 13 13 12 12 12 12 12 12 12 12 11 12 11 11 11 11 11 11 11 11 11 11 11 11 11 11
15 15 15 15 14 14 14 14 14 14 14 13 13 13 13 13 13 13 12 12 12 12 12 12 12 12 11 11 11 11 11 11 11 11 11 11 10 10 11 11 10 10 10
15 15 14 14 14 14 14 14 14 14 13 13 13 13 13 12 12 12 12 12 12 12 12 12 12 12 11 11 11 11 11 11 11 11 11 11 10 10 10 10 10 10 10
14 14 14 14 14 14 14 13 13 13 13 13 13 13 12 12 12 12 12 12 12 12 12 11 12 12 11 11 11 11 11 11 11 10 10 10 10 10 10 10 10 10 10
14 14 14 14 14 14 13 13 13 13 13 13 12 12 12 12 12 12 12 12 11 11 11 11 11 11 11 11 11 11 10 10 10 10 10 10 10 10 10 10 10 10 10
14 14 14 13 13 13 13 13 13 13 12 12 12 12 12 12 12 12 11 11 11 11 11 11 11 11 11 11 11 11 10 10 10 10 10 10 10 10 10 10 9 9 9
13 13 13 13 13 13 13 12 12 12 12 12 12 12 12 12 12 12 11 11 11 11 11 11 11 11 10 10 10 10 10 10 10 10 10 10 10 10 10 9 9 9 9
13 13 13 13 13 13 12 12 12 12 12 12 12 12 11 12 12 11 11 11 10 11 10 10 10 10 10 10 10 10 10 10 10 10 9 9 9 9 9 9 9 9 9
13 12 12 12 12 12 12 12 12 12 11 11 11 11 11 11 11 11 11 10 10 10 10 10 10 10 10 10 10 10 10 10 10 10 10 9 10 9 9 9 9 8 8
12 12 12 11 11 12 11 11 11 11 11 11 11 11 11 11 11 11 11 10 10 10 10 10 10 10 10 10 10 9 9 9 9 9 9 9 9 9 9 9 9 8 8
11 11 11 11 11 11 11 11 11 11 11 10 10 11 10 10 10 10 10 10 10 10 10 10 10 10 10 10 10 9 9 9 9 9 9 9 9 9 9 9 8 8 8
11 11 11 11 11 11 11 11 10 10 10 10 10 10 10 10 10 10 10 10 10 9 10 10 10 10 10 10 10 9 9 9 9 8 8 8 8 8 8 8 8 8 8
11 11 11 11 10 10 10 10 10 10 9 9 9 9 9 9 9 9 9 9 9 9 9 9 10 10 10 9 9 9 9 9 8 8 8 8 8 8 8 8 8 8 8
10 10 10 10 10 10 10 10 9 9 9 9 9 9 9 9 9 9 9 9 9 9 9 9 9 9 9 9 9 8 8 8 8 8 8 8 8 8 8 8 8 7 7
9 9 10 10 9 9 9 9 9 9 9 8 8 8 8 8 8 8 8 8 8 8 8 8 8 8 8 8 8 8 8 8 8 8 8 7 7 7 7 7 7 7 7
9 9 9 9 9 9 9 9 9 8 8 8 8 8 8 8 8 8 8 8 8 8 8 8 8 7 7 8 8 8 8 8 7 7 7 7 7 7 7 7 7 7 6
8 8 8 8 8 8 8 8 8 8 8 8 8 7 7 7 8 8 8 8 7 7 7 7 7 7 7 7 7 7 7 7 7 7 7 7 7 7 7 7 7 6 6
8 8 8 8 8 7 7 7 7 7 7 7 7 7 7 7 7 7 7 7 6 6 6 6 6 7 7 6 6 7 7 6 6 6 6 6 6 6 6 6 6 6 6
7 7 7 7 7 7 7 7 7 6 6 6 6 6 6 6 6 6 6 6 6 6 6 6 6 6 6 6 6 6 6 6 6 6 6 6 6 6 6 6 6 6 6
7 7 7 7 6 6 6 6 6 6 6 6 6 6 5 5 5 5 5 5 5 5 5 5 5 5 5 5 6 6 6 5 5 6 5 5 5 5 5 5 5 5 5
6 6 6 6 6 6 6 6 6 5 5 5 5 5 5 5 4 4 4 4 4 4 4 4 4 5 5 5 5 5 5 5 5 5 5 5 5 5 5 5 5 5 5
6 6 6 5 5 5 5 5 5 5 5 4 4 4 4 4 4 4 4 4 4 4 4 4 4 4 4 4 4 4 4 4 4 4 4 5 5 5 4 4 4 4 4
5 5 5 5 5 5 5 5 4 4 4 4 4 4 4 3 3 3 3 3 3 3 3 4 3 3 4 4 4 4 4 4 4 4 4 4 4 4 4 4 4 4 4
5 5 5 5 5 4 4 4 4 4 3 3 3 3 3 3 3 3 3 3 3 3 3 3 3 3 3 3 3 3 3 3 3 3 3 3 3 4 4 4 4 4 3
5 5 4 4 4 4 4 3 3 3 3 3 3 3 3 3 3 2 2 2 2 2 2 2 2 2 3 3 3 3 3 3 3 3 3 3 3 3 3 3 3 3 3
4 4 4 4 4 3 3 3 3 3 3 2 2 2 2 2 2 2 2 2 2 2 2 2 2 2 2 2 2 3 3 3 3 3 3 3 2 2 2 2 2 2 2
Wind_Speed
4 4 4 4 4 3 3 3 4 4 4 4 4 4 4 4 4 4 5 5 5 4 5 5 4 3 3 3 3 3 3 3 3 2 1 1 2 2 1 2 2 2 2
3 4 4 4 4 4 4 4 4 4 4 4 4 4 4 4 4 5 5 5 5 5 5 5 4 3 4 4 3 3 3 3 3 3 2 2 2 2 2 2 2 2 1
3 3 3 4 4 5 5 4 5 4 4 4 4 4 4 4 4 5 6 6 6 5 5 5 5 5 5 4 4 4 3 3 3 3 2 1 2 2 2 2 2 2 1
2 3 3 4 4 5 5 5 5 5 5 5 5 5 5 4 5 5 6 6 6 6 6 6 5 5 5 5 5 5 4 3 3 3 3 2 2 2 3 3 2 2 2
2 3 3 3 4 4 4 5 5 5 5 5 5 5 5 5 4 5 5 6 6 6 6 6 5 4 3 4 4 4 4 4 4 4 4 3 3 3 3 3 3 2 2
2 2 2 3 3 3 4 4 5 5 5 5 5 5 5 4 3 4 6 6 6 7 7 6 6 6 5 6 5 5 5 5 5 5 4 5 5 4 3 4 3 3 3
2 2 2 3 3 3 4 4 5 5 6 6 5 6 6 5 4 5 7 7 7 7 7 6 5 5 6 7 8 9 8 7 7 7 7 6 5 5 5 5 5 4 4
2 2 2 3 3 3 4 4 5 5 5 5 6 6 6 5 4 6 7 8 8 8 8 8 8 7 6 7 7 8 8 8 8 8 8 7 5 4 5 6 5 4 4
3 3 4 4 4 4 4 5 5 5 5 5 5 6 7 6 5 6 7 7 7 8 8 7 7 8 5 6 8 8 8 7 7 7 6 4 2 3 4 4 4 4 4
4 4 4 4 5 5 5 5 5 5 5 5 5 6 7 7 4 5 8 6 7 6 6 7 6 6 5 7 9 9 9 8 7 7 7 7 7 7 8 7 6 5 4
4 4 4 4 5 5 5 4 5 4 4 5 5 5 6 6 4 4 6 6 6 7 6 6 5 6 7 8 9 9 7 7 7 7 6 6 6 5 6 7 6 6 6
4 4 4 4 4 4 4 4 4 4 4 4 4 4 4 4 4 3 5 7 7 7 7 6 5 6 7 9 8 6 6 6 6 6 6 6 5 5 5 6 7 7 7
4 4 4 4 4 4 4 4 4 4 4 4 4 4 4 4 3 4 5 7 8 7 6 5 5 6 7 7 8 8 8 7 7 7 7 6 6 5 5 5 6 6 6
5 5 5 4 4 4 4 3 3 4 4 4 4 4 4 4 4 3 4 5 6 6 6 5 6 7 7 6 6 8 7 7 7 7 7 6 5 5 5 5 5 5 5
5 5 5 4 5 4 4 4 4 4 4 5 5 5 5 5 4 4 4 4 5 5 5 5 5 5 6 6 6 6 6 6 7 7 6 6 6 6 6 5 5 5 6
4 5 5 4 4 4 4 4 4 5 5 6 6 6 5 5 4 4 5 4 4 4 5 5 5 6 6 6 6 7 6 7 7 7 7 7 7 7 6 6 6 6 7
5 5 5 4 4 4 5 5 5 4 4 5 6 6 6 5 4 4 4 3 3 3 4 4 5 5 6 6 6 6 6 6 6 6 6 7 7 7 7 7 7 7 7
5 5 5 5 4 5 5 5 5 5 5 5 4 5 5 5 4 4 3 2 2 3 4 4 4 5 5 6 6 6 5 5 5 5 6 6 7 7 7 8 8 8 8
5 5 5 5 5 5 5 5 4 5 5 5 5 4 3 3 3 3 2 3 3 3 4 4 4 4 4 5 5 5 5 5 5 5 6 7 7 7 8 8 8 8 9
4 5 5 5 5 4 4 4 4 4 4 4 4 4 3 3 3 3 2 3 4 4 4 4 4 4 4 4 4 5 5 6 6 6 6 6 7 7 8 9 8 8 9
4 4 5 5 4 4 4 4 4 4 4 4 4 4 4 4 4 4 4 4 4 4 4 4 4 4 4 4 4 4 5 5 5 6 6 6 7 7 7 8 9 9 9
4 4 4 4 4 4 4 4 4 4 4 5 5 4 3 4 4 4 4 4 5 4 4 5 5 4 4 4 4 5 5 5 5 5 6 6 6 7 7 7 8 8 8
4 4 4 4 4 3 4 4 4 4 4 4 4 4 4 4 4 4 5 5 5 5 4 4 5 5 5 5 5 5 5 5 5 5 6 6 7 7 7 8 9 9 9
4 4 4 4 3 3 3 4 4 4 4 4 4 4 4 4 4 5 5 5 5 5 5 5 5 6 7 6 5 5 5 5 6 6 8 8 7 7 7 8 8 9 9
4 3 3 3 3 4 4 4 4 4 4 4 4 4 4 4 5 5 5 5 5 5 6 6 5 6 7 7 7 6 5 6 6 6 7 7 8 8 8 9 8 9 9
3 3 3 3 3 4 4 4 4 4 4 4 4 4 4 4 5 5 5 5 5 5 6 6 6 7 7 6 7 7 7 7 7 8 7 7 8 8 8 8 9 9 9
Wind_Direction
208 214 219 221 228 232 242 242 249 251 251 250 257 261 257 241 223 215 227 225 234 230 223 226 226 235 233 232 235 236 244 257 266 277 268 241 240 270 267 280 276 252 181
216 220 230 231 235 241 245 245 253 259 262 262 262 263 260 251 240 224 222 223 229 234 232 230 230 221 226 226 225 230 235 249 255 268 249 243 248 271 289 280 265 266 261
224 225 230 236 241 246 247 248 253 258 260 259 258 259 259 253 242 233 228 228 229 232 233 235 235 226 223 218 218 224 225 233 251 250 254 255 253 256 272 271 254 256 262
230 231 239 248 247 248 251 254 253 255 260 264 259 257 256 250 244 239 235 234 233 233 234 236 236 232 228 224 221 223 223 224 231 240 244 242 243 250 254 256 247 237 245
243 241 247 256 256 254 252 254 254 253 254 256 258 257 253 246 245 249 241 237 239 239 238 237 234 235 257 243 236 231 225 228 228 236 242 243 238 233 247 247 250 258 244
251 253 254 260 262 262 263 261 257 254 253 253 256 254 250 243 230 241 254 241 241 243 243 240 229 216 216 217 226 239 243 236 234 236 247 247 248 240 240 244 239 251 256
262 280 276 272 274 273 268 264 262 258 255 252 253 253 252 247 217 222 235 250 248 249 249 243 233 227 224 226 214 214 226 237 243 247 248 251 254 242 236 241 237 246 259
280 297 296 287 277 275 270 266 264 262 258 254 254 252 252 249 226 227 230 240 247 249 249 247 239 232 224 232 230 224 227 225 228 235 247 252 255 249 237 243 242 243 253
298 301 299 288 284 280 275 272 271 266 263 261 259 256 254 250 227 231 234 239 242 247 247 246 244 239 200 215 235 235 232 229 217 230 260 270 282 254 242 232 220 223 242
310 302 297 293 286 280 279 281 277 270 266 267 264 261 258 259 237 234 239 241 243 244 244 241 237 245 219 208 231 237 237 234 227 219 226 224 227 213 212 225 225 230 242
312 306 304 301 292 286 285 285 281 278 277 274 272 268 265 264 245 234 244 245 247 246 242 239 232 216 226 220 231 239 244 247 237 234 230 228 225 221 216 223 227 235 242
314 308 307 306 303 295 290 288 284 278 275 279 280 281 277 268 263 250 245 253 266 252 249 248 238 210 221 222 224 234 235 235 236 232 230 229 226 224 225 226 229 234 246
321 320 319 315 307 297 288 283 280 275 275 278 277 277 277 276 271 259 244 247 255 255 256 260 253 223 219 222 219 222 223 227 230 231 232 234 231 226 222 222 228 231 241
321 320 321 320 314 302 292 283 280 277 277 281 284 282 280 275 276 278 269 257 246 250 256 244 231 227 226 231 224 220 226 230 231 233 236 236 228 219 216 216 218 219 229
315 315 316 317 314 305 298 294 282 276 282 282 280 279 279 277 290 300 281 268 267 260 252 247 241 229 225 224 226 225 223 223 228 232 231 230 225 223 222 218 221 224 233
308 312 313 313 312 310 303 302 304 283 289 288 293 290 284 293 308 292 281 284 282 267 250 237 236 234 231 229 223 223 224 224 227 228 228 228 226 225 225 222 221 228 235
305 305 305 306 309 309 304 299 299 294 275 272 274 280 282 289 288 283 277 272 257 245 248 246 243 239 235 233 230 228 230 230 230 231 231 231 231 230 227 227 226 231 238
306 306 303 301 302 300 297 295 294 297 301 303 290 276 273 274 275 273 262 256 264 247 255 254 250 245 237 239 236 233 233 231 230 234 236 235 234 232 230 232 232 235 239
305 306 306 304 300 296 294 294 295 295 298 305 313 314 304 289 274 269 238 256 257 261 265 265 262 259 253 244 240 237 235 232 231 233 236 236 237 236 234 236 239 238 242
302 306 302 300 297 298 298 297 298 298 298 300 304 311 324 317 308 302 274 267 266 266 266 266 270 268 267 265 254 245 240 237 234 234 238 239 239 240 241 240 241 241 240
297 297 295 292 293 297 298 297 298 298 300 301 302 311 320 302 298 296 288 279 276 275 272 271 272 274 268 266 266 257 250 248 242 239 241 242 240 241 243 245 245 245 246
289 289 292 293 293 294 295 298 298 299 299 300 305 310 299 293 296 294 291 287 284 284 283 279 272 267 268 265 262 260 255 254 254 252 247 246 246 246 246 245 247 247 248
283 286 290 294 295 293 288 293 298 297 297 300 305 309 306 299 298 298 296 297 296 296 295 286 274 272 275 275 271 262 260 260 258 255 256 253 250 248 246 245 246 249 249
277 278 284 293 294 291 293 297 299 300 299 298 298 301 302 302 302 301 301 303 304 303 302 292 279 271 273 278 276 270 269 275 278 270 260 257 255 255 251 248 249 250 251
277 275 278 284 289 293 296 298 295 295 296 296 299 299 300 299 298 299 300 302 302 301 304 303 293 284 279 280 281 276 275 274 275 279 272 261 258 256 257 254 251 252 251
276 276 278 281 284 286 289 293 295 296 295 297 297 295 296 296 296 297 298 301 305 306 307 307 304 304 302 295 291 288 278 269 266 269 271 263 257 254 255 256 257 255 256
Height
1523 1524 1524 1525 1525 1525 1526 1525 1525 1525 1524 1523 1522 1521 1520 1519 1519 1519 1519 1520 1520 1521 1521 1521 1521 1521 1521 1521 1521 1521 1521 1521 1521 1520 1519 1518 1517 1516 1515 1515 1515 1515 1514
1520 1521 1522 1522 1523 1523 1523 1523 1522 1522 1521 1520 1520 1519 1518 1517 1517 1517 1517 1517 1518 1518 1518 1519 1519 1518 1518 1519 1518 1519 1519 1519 1519 1518 1517 1516 1516 1515 1513 1513 1513 1513 1513
1518 1518 1519 1519 1519 1520 1520 1520 1519 1519 1518 1517 1517 1516 1515 1514 1514 1514 1514 1515 1515 1515 1516 1516 1516 1516 1516 1516 1516 1516 1516 1516 1516 1516 1515 1514 1514 1513 1512 1511 1512 1511 1511
1515 1515 1516 1516 1516 1516 1516 1516 1516 1516 1515 1514 1513 1513 1512 1512 1511 1511 1512 1512 1512 1513 1513 1513 1513 1513 1513 1514 1514 1514 1514 1514 1514 1514 1514 1513 1512 1511 1511 1510 1510 1510 1510
1512 1512 1512 1513 1513 1513 1513 1512 1512 1512 1512 1511 1510 1510 1509 1509 1508 1508 1508 1509 1509 1510 1510 1510 1510 1510 1510 1510 1511 1511 1511 1511 1512 1512 1511 1511 1510 1509 1509 1508 1508 1508 1508
1509 1509 1509 1510 1509 1509 1509 1509 1508 1508 1508 1507 1506 1506 1505 1505 1505 1504 1505 1505 1506 1506 1506 1507 1507 1506 1506 1507 1507 1507 1508 1509 1509 1509 1509 1509 1508 1508 1507 1506 1506 1506 1506
1506 1507 1507 1507 1506 1506 1505 1505 1505 1504 1504 1503 1503 1502 1502 1501 1501 1501 1501 1501 1502 1502 1503 1503 1503 1503 1503 1504 1504 1504 1505 1505 1505 1506 1506 1506 1506 1505 1504 1504 1504 1504 1504
1504 1504 1504 1503 1503 1502 1502 1501 1501 1500 1500 1499 1499 1498 1498 1498 1497 1497 1497 1498 1498 1498 1499 1499 1499 1499 1499 1500 1501 1501 1501 1501 1501 1502 1503 1503 1503 1502 1501 1501 1501 1501 1501
1501 1501 1501 1500 1499 1499 1498 1498 1497 1496 1496 1495 1494 1494 1494 1493 1493 1493 1493 1494 1494 1494 1494 1494 1495 1495 1495 1495 1497 1497 1498 1498 1497 1498 1498 1498 1498 1498 1498 1498 1498 1498 1498
1499 1498 1498 1497 1496 1496 1495 1494 1493 1493 1492 1491 1490 1490 1489 1489 1489 1489 1489 1489 1489 1490 1489 1490 1490 1490 1491 1491 1492 1493 1493 1494 1494 1494 1494 1494 1494 1494 1494 1494 1494 1495 1495
1496 1495 1494 1494 1493 1492 1491 1490 1490 1489 1488 1487 1486 1485 1485 1484 1484 1484 1484 1485 1485 1485 1485 1485 1485 1485 1486 1486 1487 1488 1489 1490 1490 1490 1490 1490 1490 1490 1490 1490 1490 1491 1491
1493 1492 1491 1490 1489 1489 1487 1487 1486 1485 1483 1483 1482 1481 1480 1480 1480 1479 1480 1480 1480 1480 1480 1481 1481 1481 1481 1481 1482 1482 1484 1485 1485 1486 1486 1486 1486 1486 1486 1486 1486 1486 1487
1490 1489 1488 1487 1486 1485 1484 1483 1482 1481 1480 1479 1478 1477 1476 1476 1475 1475 1475 1475 1475 1475 1475 1475 1475 1475 1476 1476 1476 1477 1479 1480 1480 1481 1481 1481 1481 1482 1482 1482 1482 1482 1483
1488 1486 1485 1484 1483 1482 1480 1479 1478 1477 1476 1475 1474 1473 1472 1472 1471 1471 1470 1470 1470 1469 1469 1469 1470 1470 1470 1471 1471 1472 1473 1474 1474 1475 1476 1477 1477 1477 1477 1477 1477 1478 1478
1485 1483 1482 1481 1479 1478 1477 1476 1475 1474 1473 1472 1470 1469 1468 1467 1467 1466 1466 1465 1464 1464 1464 1464 1464 1464 1465 1465 1466 1466 1467 1468 1469 1470 1471 1471 1472 1472 1472 1472 1473 1473 1474
1481 1480 1478 1477 1476 1475 1474 1472 1471 1470 1469 1467 1466 1465 1464 1463 1462 1461 1460 1460 1459 1459 1459 1458 1458 1459 1459 1459 1460 1461 1462 1462 1463 1464 1465 1466 1466 1467 1467 1468 1468 1468 1468
1478 1476 1475 1474 1472 1471 1470 1469 1467 1466 1464 1463 1462 1460 1459 1458 1457 1456 1455 1455 1454 1453 1453 1453 1453 1453 1453 1454 1455 1455 1456 1457 1458 1459 1460 1460 1461 1461 1462 1462 1462 1463 1463
1475 1473 1472 1470 1469 1468 1467 1466 1464 1462 1460 1459 1457 1456 1455 1454 1452 1451 1450 1450 1449 1449 1448 1448 1448 1448 1448 1449 1449 1450 1451 1451 1452 1453 1454 1455 1455 1456 1456 1456 1457 1457 1457
1471 1469 1468 1467 1466 1465 1463 1462 1461 1459 1457 1455 1454 1453 1451 1450 1448 1447 1446 1445 1445 1444 1444 1444 1443 1443 1443 1444 1444 1445 1445 1446 1446 1447 1448 1448 1449 1450 1450 1450 1451 1451 1451
1467 1465 1464 1463 1462 1461 1460 1458 1457 1456 1454 1452 1451 1449 1448 1446 1445 1444 1443 1442 1441 1440 1440 1439 1439 1439 1438 1439 1439 1439 1440 1441 1441 1441 1442 1442 1443 1443 1444 1444 1445 1445 1445
1463 1462 1460 1459 1458 1457 1456 1455 1453 1452 1451 1449 1448 1446 1445 1444 1442 1441 1440 1439 1438 1437 1436 1435 1434 1434 1434 1434 1434 1434 1435 1435 1435 1436 1436 1436 1436 1437 1437 1437 1438 1438 1439
1459 1458 1457 1456 1455 1454 1452 1451 1450 1449 1447 1446 1444 1443 1441 1440 1439 1438 1437 1435 1434 1433 1432 1431 1430 1430 1430 1429 1430 1429 1429 1430 1430 1430 1430 1430 1430 1430 1431 1431 1431 1432 1432
1455 1454 1453 1452 1451 1450 1449 1448 1446 1445 1444 1442 1441 1439 1438 1437 1435 1434 1433 1432 1430 1429 1427 1426 1425 1425 1425 1425 1425 1424 1424 1424 1424 1424 1424 1424 1424 1424 1424 1424 1424 1425 1425
1451 1450 1449 1448 1447 1446 1445 1444 1443 1441 1440 1439 1437 1436 1434 1433 1431 1430 1429 1427 1426 1424 1423 1421 1420 1420 1420 1420 1420 1419 1419 1419 1419 1419 1419 1418 1418 1418 1418 1418 1418 1418 1418
1447 1446 1445 1444 1444 1443 1441 1440 1439 1438 1436 1435 1433 1432 1430 1429 1428 1426 1425 1423 1422 1420 1418 1417 1416 1416 1415 1415 1414 1414 1413 1413 1413 1412 1412 1412 1412 1412 1412 1411 1411 1411 1412
1443 1442 1441 1441 1440 1439 1437 1436 1435 1433 1432 1431 1430 1428 1427 1425 1424 1422 1421 1420 1418 1416 1414 1413 1412 1411 1410 1410 1409 1408 1407 1407 1406 1406 1406 1405 1405 1405 1405 1405 1405 1405 1405